Location: Northam
(31.6525°S, 116.6655°E)
Time: 23:10:56
(UTC+08:00)

Hubble Space Telescope - Pass Details

Date: 22 May 2021
Orbit: 535 x 539 km, 28.5° (Epoch: 19 June)

Event Time Altitude Azimuth Distance (km) Brightness Sun altitude
Rises 20:04:04 0° 271° (W) 2,692 5.4 -34.3°
Reaches altitude 10° 20:06:30 10° 281° (W) 1,799 4.2 -34.9°
Enters shadow 20:07:16 14° 287° (WNW) 1,544 3.8 -35.0°
